Back to catalog

DELTA 1 DEB

AlivePO
NORAD 21910·DEBRIS·🇺🇸 United States

Launched Jun 12, 1975 from Vandenberg Space Force Base

Loading…

Next Passes (next 24 hours)

TLE

FreshSource: Space-Track

Epoch: Sep 14, 2026, 10:37 UTC

1 21910U 75052JR  26257.44297476  .00000119  00000-0  53499-3 0  9991
2 21910  99.6445 239.3929 0325785 184.9884 329.2936 12.80878600635447

Track DELTA 1 DEB in real time with AllMySat

Download on the App Store